Location: Unspecified
(43.0775°N, 0.0000°E)
Time: 21:22:03
(UTC+00:00)

UNK - Visible Passes

Search period start: 04 April 2026 00:00
Search period end: 14 April 2026 00:00
Orbit: 661 x 676 km, 98.4° (Epoch: 29 March)

Date Brightness Start Highest point End Pass type
(mag) Time Alt. Az. Time Alt. Az. Time Alt. Az.
4 Apr ? 03:42:15 10° SSE 03:46:48 62° ENE 03:51:22 10° N visible
5 Apr ? 02:39:40 10° E 02:42:20 15° ENE 02:45:00 10° NNE visible
5 Apr ? 04:14:16 10° S 04:18:50 63° WSW 04:23:26 10° NNW visible
6 Apr ? 03:10:07 10° SE 03:14:05 29° ENE 03:18:04 10° N visible
6 Apr ? 04:47:00 10° SSW 04:51:02 30° W 04:55:06 10° NW visible
7 Apr ? 03:41:27 10° SSE 03:45:58 60° ENE 03:50:32 10° N visible
8 Apr ? 02:38:57 10° E 02:41:32 15° ENE 02:44:06 10° NNE visible
8 Apr ? 04:13:26 10° S 04:18:01 65° WSW 04:22:37 10° NNW visible
9 Apr ? 03:09:19 10° SE 03:13:16 28° ENE 03:17:12 10° N visible
9 Apr ? 04:46:08 10° SSW 04:50:12 31° W 04:54:18 10° NW visible
10 Apr ? 03:40:38 10° SSE 03:45:09 58° ENE 03:49:41 10° N visible
11 Apr ? 02:38:13 10° E 02:40:42 15° ENE 02:43:12 10° NNE visible
11 Apr ? 04:12:36 10° S 04:17:11 67° WSW 04:21:47 10° NNW visible
12 Apr ? 03:08:32 10° SE 03:12:26 28° ENE 03:16:20 10° N visible
12 Apr ? 04:45:15 10° SSW 04:49:21 31° W 04:53:28 10° NNW visible
13 Apr ? 03:39:49 10° SSE 03:44:18 56° ENE 03:48:50 10° N visible
